Weather History for Hamilton Island, QU

Change the Weather History Date:

Friday, September 6, 2013

  Actual Average Record
Temperature  
Mean Temperature 70 °F -  
Max Temperature 75 °F - - ()
Min Temperature 64 °F - - ()
Cooling Degree Days 4    
Growing Degree Days 20 (Base 50)    
Moisture  
Dew Point 61 °F    
Average Humidity 73    
Maximum Humidity 88    
Minimum Humidity 55    
Precipitation  
Precipitation 0.01 in - - ()
Sea Level Pressure  
Sea Level Pressure 30.21 in    
Wind  
Wind Speed 26 mph ()    
Max Wind Speed 38 mph    
Max Gust Speed 40 mph    
T = Trace of Precipitation, MM = Missing Value Source: Averaged Metar Reports

Daily Weather History Graph

Daily Weather History Graph

Search for Another Location

Airport:

Trip Planner

Search our weather history database for the weather conditions in past years. The results will help you decide how hot, cold, wet, or windy it might be!

Date:

Astronomy

Sep. 06, 2013 Rise Set
Actual Time 6:08 AM AEST 5:56 PM AEST
Civil Twilight 5:46 AM AEST 6:18 PM AEST
Nautical Twilight 5:21 AM AEST 6:44 PM AEST
Astronomical Twilight 4:55 AM AEST 7:10 PM AEST
Moon 6:14 AM AEST (9/6) 6:36 PM AEST (9/6)
Length of Visible Light 12h 32m
Length of Day
11h 47m
New Moon, 0% of the Moon is Illuminated
Sep 6
New Moon
Sep 13
First Quarter
Sep 19
Full
Sep 27
Last Quarter
Oct 5
New

Hourly Weather History & Observations

Time (AEST) Temp. Dew Point Humidity Pressure Visibility Wind Dir Wind Speed Gust Speed Precip Events Conditions
12:00 AM 66 °F 63 °F 88% 30.24 in - SE 24.2 mph - -  
12:00 AM 66.2 °F 62.6 °F 88% 30.24 in - SE 24.2 mph - N/A   Unknown
12:06 AM 66.2 °F 62.6 °F 88% 30.21 in - ESE 26.5 mph 40.3 mph N/A   Unknown
12:30 AM 68.0 °F 60.8 °F 78% 30.21 in - SE 27.6 mph - N/A   Unknown
1:00 AM 68.0 °F 62.6 °F 83% 30.21 in - SE 27.6 mph - N/A   Unknown
1:30 AM 68.0 °F 62.6 °F 83% 30.21 in - SE 29.9 mph - N/A   Unknown
2:00 AM 68.0 °F 60.8 °F 78% 30.21 in - SE 28.8 mph - N/A   Unknown
2:30 AM 68.0 °F 64.4 °F 88% 30.18 in - ESE 34.5 mph - N/A   Unknown
3:00 AM 68 °F 63 °F 80% 30.20 in - SE 27.6 mph - -  
3:00 AM 68.0 °F 62.6 °F 83% 30.18 in - SE 27.6 mph - N/A   Unknown
3:09 AM 68.0 °F 64.4 °F 88% 30.18 in - SE 26.5 mph 38.0 mph N/A   Unknown
3:28 AM 68.0 °F 62.6 °F 83% 30.18 in - East 38.0 mph - N/A   Unknown
3:30 AM 68.0 °F 62.6 °F 83% 30.18 in - East 36.8 mph - N/A   Unknown
3:59 AM 68.0 °F 62.6 °F 83% 30.18 in - East 25.3 mph - N/A   Unknown
4:00 AM 68.0 °F 64.4 °F 88% 30.18 in - East 24.2 mph - N/A   Unknown
4:30 AM 69.8 °F 62.6 °F 78% 30.18 in - ESE 29.9 mph - N/A   Unknown
5:00 AM 69.8 °F 59.0 °F 68% 30.18 in - ESE 33.4 mph - N/A   Unknown
5:30 AM 69.8 °F 59.0 °F 68% 30.18 in - ESE 29.9 mph - N/A   Unknown
6:00 AM 70 °F 59 °F 60% 30.20 in - ESE 29.9 mph - -  
6:00 AM 69.8 °F 59.0 °F 68% 30.21 in - ESE 29.9 mph - N/A   Unknown
6:30 AM 69.8 °F 57.2 °F 64% 30.21 in - ESE 34.5 mph - N/A   Unknown
7:00 AM 69.8 °F 59.0 °F 68% 30.21 in - ESE 33.4 mph - N/A   Unknown
7:30 AM 69.8 °F 62.6 °F 78% 30.24 in - ESE 28.8 mph - N/A   Unknown
8:00 AM 69.8 °F 60.8 °F 73% 30.24 in - ESE 27.6 mph - N/A   Unknown
8:30 AM 71.6 °F 62.6 °F 73% 30.24 in - ESE 27.6 mph - N/A   Unknown
9:00 AM 72 °F 59 °F 55% 30.26 in - East 32.2 mph - -  
9:00 AM 71.6 °F 59.0 °F 64% 30.27 in - East 32.2 mph - N/A   Unknown
9:30 AM 73.4 °F 59.0 °F 61% 30.24 in - East 33.4 mph - N/A   Unknown
10:00 AM 73.4 °F 57.2 °F 57% 30.27 in - East 28.8 mph - N/A   Unknown
10:30 AM 73.4 °F 60.8 °F 65% 30.24 in - East 28.8 mph - N/A   Unknown
11:00 AM 73.4 °F 60.8 °F 65% 30.24 in - ESE 29.9 mph - N/A   Unknown
11:30 AM 73.4 °F 62.6 °F 69% 30.24 in - ESE 24.2 mph - N/A   Unknown
12:00 PM 74 °F 64 °F 63% 30.23 in - ESE 25.3 mph - -  
12:00 PM 73.4 °F 64.4 °F 73% 30.24 in - ESE 25.3 mph - N/A   Unknown
12:30 PM 73.4 °F 62.6 °F 69% 30.21 in - ESE 25.3 mph - N/A   Unknown
1:00 PM 75.2 °F 64.4 °F 69% 30.21 in - ESE 28.8 mph - N/A   Unknown
1:30 PM 73.4 °F 62.6 °F 69% 30.21 in - ESE 27.6 mph - N/A   Unknown
2:00 PM 73.4 °F 62.6 °F 69% 30.18 in - ESE 28.8 mph - N/A   Unknown
2:30 PM 73.4 °F 64.4 °F 73% 30.18 in - ESE 26.5 mph - N/A   Unknown
3:00 PM 72 °F 63 °F 65% 30.19 in - ESE 26.5 mph - -  
3:00 PM 71.6 °F 62.6 °F 73% 30.18 in - ESE 26.5 mph - N/A   Unknown
3:30 PM 71.6 °F 64.4 °F 78% 30.18 in - ESE 27.6 mph - N/A   Unknown
4:00 PM 69.8 °F 60.8 °F 73% 30.18 in - ESE 29.9 mph - N/A   Unknown
4:30 PM 69.8 °F 62.6 °F 78% 30.18 in - ESE 25.3 mph - N/A   Unknown
5:00 PM 69.8 °F 60.8 °F 73% 30.18 in - ESE 28.8 mph - N/A   Unknown
5:30 PM 69.8 °F 62.6 °F 78% 30.18 in - ESE 28.8 mph - N/A   Unknown
6:00 PM 69 °F 61 °F 68% 30.21 in - ESE 28.8 mph - -  
6:00 PM 69.8 °F 60.8 °F 73% 30.21 in - ESE 28.8 mph - N/A   Unknown
6:30 PM 69.8 °F 60.8 °F 73% 30.21 in - ESE 28.8 mph - N/A   Unknown
7:00 PM 69.8 °F 60.8 °F 73% 30.21 in - ESE 27.6 mph - N/A   Unknown
7:30 PM 69.8 °F 60.8 °F 73% 30.24 in - SE 27.6 mph - N/A   Unknown
8:00 PM 69.8 °F 62.6 °F 78% 30.24 in - ESE 26.5 mph - N/A   Unknown
8:30 PM 68.0 °F 62.6 °F 83% 30.24 in - SE 27.6 mph - N/A   Unknown
9:00 PM 69 °F 58 °F 60% 30.24 in - ESE 29.9 mph - -  
9:00 PM 69.8 °F 59.0 °F 68% 30.24 in - ESE 29.9 mph - N/A   Unknown
9:30 PM 69.8 °F 59.0 °F 68% 30.24 in - ESE 28.8 mph - N/A   Unknown
10:00 PM 69.8 °F 59.0 °F 68% 30.24 in - ESE 27.6 mph - N/A   Unknown
10:30 PM 69.8 °F 59.0 °F 68% 30.24 in - ESE 25.3 mph - N/A   Unknown
11:00 PM 69.8 °F 60.8 °F 73% 30.24 in - ESE 24.2 mph - N/A   Unknown
11:30 PM 69.8 °F 59.0 °F 68% 30.24 in - ESE 25.3 mph - N/A   Unknown